Location: St Andrew
(49.4460°N, 2.5750°W)
Time: 16:56:01
(UTC+01:00)

Daily predictions for brighter satellites

Satellite Brightness Start Highest point End
(mag) Time Altitude Azimuth Time Altitude Azimuth Time Altitude Azimuth
Cosmos 2227 4.3 21:52:38 10° SSW 21:58:16 65° ESE 22:03:56 10° NNE
SL-08 RB Rocket 4.0 21:54:27 10° SSE 21:58:57 59° ENE 22:03:31 10° N
Cosmos 1802 Rocket 4.2 21:53:04 10° NNW 21:59:14 80° W 22:05:23 10° S
ERBS 3.2 21:58:27 10° WNW 22:01:38 39° SW 22:04:49 10° SSE
Cosmos 1814 Rocket 4.1 21:59:16 10° NNW 22:04:39 85° WSW 22:09:57 10° SSE
Cosmos 2151 4.1 22:02:30 10° SSE 22:06:09 28° E 22:09:49 10° NNE
Cosmos 1408 Rocket 3.5 22:01:59 10° S 22:06:18 85° E 22:10:40 10° N
Cosmos 2221 4.3 22:02:32 10° NNW 22:06:26 31° W 22:10:18 10° SSW
Cosmos 2297 Rocket 4.2 22:03:43 10° WSW 22:08:50 34° NW 22:13:59 10° NNE
Cosmos 841 Rocket 3.6 22:05:30 10° NNW 22:10:47 72° ENE 22:15:59 10° SSE
Cosmos 1763 Rocket 3.5 22:05:38 10° NNW 22:10:47 87° ENE 22:15:51 10° SSE
USA 234 4.0 22:05:32 10° ENE 22:11:08 29° SE 22:16:42 10° S
Cosmos 2263 Rocket 2.9 22:09:29 10° SSE 22:14:25 33° ESE 22:19:23 10° NE
ATLAS 5 CENTAUR R/B 2.8 22:09:55 10° WSW 22:14:38 56° NW 22:19:53 10° NE
Abrixas rocket 3.7 22:14:07 10° W 22:16:46 23° SSW 22:19:24 10° SSE
Cosmos 332 Rocket 4.4 22:12:56 10° NNW 22:17:44 55° WSW 22:22:31 10° S
Cosmos 1486 Rocket 4.3 22:13:48 10° S 22:18:51 48° ESE 22:23:57 10° NNE
Terra 2.6 22:15:15 10° SE 22:19:39 39° ENE 22:24:05 10° N
Cosmos 2016 Rocket 4.4 22:14:36 10° NNW 22:20:50 67° W 22:26:56 10° S
EO 1 Delta rocket 3.9 22:16:34 10° SSE 22:21:10 77° ENE 22:26:00 10° N
Cosmos 1703 4.5 22:17:51 10° SSE 22:21:13 27° E 22:24:35 10° NNE
Cosmos 1726 2.8 22:18:32 10° NNW 22:22:09 53° W 22:25:43 10° S
Cosmos 1626 3.3 22:19:36 10° SSE 22:22:45 27° E 22:25:56 10° NNE
Cosmos 304 Rocket 4.2 22:18:40 10° NNW 22:23:23 52° ENE 22:27:54 11° SE
Cosmos 1356 4.1 22:23:57 10° SSE 22:27:12 38° E 22:30:29 10° NNE
Cosmos 1500 Rocket 3.8 22:23:14 10° S 22:27:35 53° E 22:31:55 10° NNE
Helios 1B rocket 4.5 22:23:57 10° N 22:27:38 31° WNW 22:31:17 10° SW
CZ-4C R/B 3.8 22:30:57 11° SE 22:33:25 14° ESE 22:36:20 10° ENE
CZ-3A R/B -0.7 22:33:42 10° NW 22:34:44 40° NNE 22:35:21 20° E
SPOT 1/Viking Rocket 3.7 22:31:31 10° SSE 22:36:40 79° WSW 22:41:52 10° NNW
Cosmos 1300 3.5 22:33:00 10° NNW 22:36:44 48° W 22:40:25 10° S
CARTOSAT-1 3.9 22:34:51 12° SSE 22:38:41 55° ENE 22:42:56 10° N
IGS 5A 3.8 22:36:57 13° SE 22:40:34 53° ENE 22:44:39 10° N
Cosmos 1328 Rocket 4.4 22:39:40 10° NNW 22:43:51 47° W 22:48:00 10° SSW
Cosmos 2233 Rocket 4.0 22:38:00 10° N 22:44:16 86° E 22:50:20 10° S
Tiangong 1 2.8 22:42:42 10° SW 22:44:21 15° SSW 22:45:05 13° S
Cosmos 2084 Rocket 4.1 22:41:02 10° NW 22:44:42 42° NE 22:48:19 10° ESE
Cosmos 1151 Rocket 3.1 22:40:18 10° NNW 22:44:43 81° W 22:48:56 11° S
Meteor 2-12 Rocket 4.5 22:39:38 10° N 22:45:46 78° E 22:51:25 12° SSE
Cosmos 1844 Rocket 4.4 22:45:14 11° SE 22:47:43 15° E 22:50:38 10° ENE
ARGOS 4.0 22:43:21 10° S 22:48:33 46° W 22:53:46 10° NNW
Nimbus 7 Rocket 4.4 22:42:54 10° NNE 22:48:59 80° ESE 22:54:58 10° SSW
Abrixas 3.3 22:49:17 10° SSW 22:51:33 24° SSE 22:53:38 11° E
Cosmos 1515 Rocket 4.2 22:47:48 10° NNW 22:52:02 53° W 22:56:15 10° S
SL-14 R/B 4.1 22:51:57 10° SSW 22:55:47 50° WNW 22:59:37 10° N
PSLV R/B 3.9 22:54:08 18° SE 22:55:49 34° ENE 22:58:28 10° N
Spot 4 4.5 22:52:30 14° SE 22:56:24 46° ENE 23:01:04 10° N
Cosmos 1943 3.9 22:51:40 10° NW 22:57:03 47° WSW 23:02:13 11° S
H-2A R/B 2.1 22:56:12 16° SSE 22:59:34 68° ENE 23:03:45 10° N
Cosmos 1743 Rocket 4.2 22:57:04 10° SSW 23:01:18 54° WNW 23:05:35 10° N
Cosmos 540 Rocket 3.5 22:59:47 10° NNW 23:04:58 84° WSW 23:09:00 17° SSE
Cosmos 1503 Rocket 4.0 23:00:11 10° S 23:05:17 62° ESE 23:10:24 10° NNE
CZ-4B R/B 4.3 23:01:39 10° NNE 23:06:30 36° E 23:09:56 17° SSE
Cosmos 2058 3.0 23:02:20 10° S 23:06:33 84° W 23:10:48 10° N
Cosmos 1455 2.2 23:05:44 10° N 23:09:37 89° W 23:12:21 18° S
CZ-2C R/B 4.4 23:11:45 10° NE 23:15:05 17° E 23:17:34 12° ESE
H-2A R/B 3.3 23:15:56 10° SSW 23:20:53 37° W 23:25:57 10° NNW
CZ-3B DEB 4.4 23:15:08 10° WNW 23:26:35 71° NNE 23:39:31 10° E
Cosmos 2242 Rocket 4.3 23:24:18 10° N 23:28:42 43° ENE 23:31:28 20° SE
SL-19 R/B 4.2 23:25:02 10° NNE 23:30:24 79° ESE 23:35:21 14° SSW
SOZ 4.4 23:31:45 10° WSW 23:35:43 80° SSE 23:37:53 10° ENE
Cosmos 1869 3.2 23:32:35 10° N 23:36:34 88° W 23:38:49 25° S
Cosmos 1933 4.3 23:35:59 10° N 23:39:50 37° ENE 23:41:58 22° SE
Sich 1 3.0 23:37:59 23° S 23:40:30 64° E 23:44:45 10° NNE
Cosmos 2034 Rocket 4.0 23:34:37 10° N 23:41:02 80° E 23:45:28 21° SSE
Cosmos 292 Rocket 3.9 23:39:23 10° NNW 23:44:10 70° ENE 23:47:05 23° SE
Cosmos 1891 Rocket 4.4 23:39:17 10° N 23:45:23 87° W 23:49:37 21° S
SL-27 R/B 4.3 23:44:27 10° N 23:47:08 22° ENE 23:49:02 14° E
Cosmos 2278 Rocket 3.8 23:45:40 15° SE 23:47:38 18° E 23:51:21 10° ENE
Cosmos 1315 Rocket 4.4 23:50:52 18° ESE 23:52:06 21° E 23:55:06 10° NE
Cosmos 1538 Rocket 4.1 23:47:12 10° NNW 23:52:37 74° ENE 23:56:02 23° SSE
Cosmos 1400 Rocket 3.5 23:51:38 26° SE 23:53:22 40° E 23:57:17 10° NNE
deb Chang Zheng 4 3.8 23:49:29 10° N 23:53:50 68° WNW 23:57:19 16° SSW
Cosmos 1707 Rocket 4.1 23:49:42 10° NNW 23:54:06 55° W 23:56:52 21° SSW
CZ-4C R/B 3.7 23:52:55 25° S 23:55:24 71° WSW 23:59:51 10° NNW
